User: anonymous   Login
Location: Newark
(47.5000°N, 4.6167°E)
Time: 17:49:25
(UTC+00:00)
Language:

Envisat - Orbit

View from above orbital plane
View from above orbital plane
View from above satellite
View from above satellite

Ground track
Ground track

The orbit data is extracted from the following two-line orbital elements,

1 27386U 02009A   21173.47866892  .00000006  00000-0  15487-4 0  9996
2 27386  98.1484 167.2794 0001274  90.7775  82.2434 14.38030606 11799
Epoch (UTC): 22 June 2021 11:29:16
Eccentricity: 0.0001274
inclination: 98.1484°
perigee height: 764 km
apogee height: 766 km
right ascension of ascending node: 167.2794°
argument of perigee: 90.7775°
revolutions per day: 14.38030606
mean anomaly at epoch: 82.2434°
orbit number at epoch: 1179

The dashed part of the orbit path shows where the satellite is in the earth's shadow,  

DLR